Preview of NWS' New Version of Forecast
This preview is not operational and should not be used for support decisions.

Regional Weather Roundup (RWR)

Issued by National Weather Service (NWS)

                            
000
ASUS43 KBIS 180810
RWRND 

NORTH DAKOTA REGIONAL WEATHER ROUNDUP
NATIONAL WEATHER SERVICE BISMARCK ND
300 AM CDT TUE JUN 18 2019

NOTE: "FAIR" INDICATES FEW OR NO CLOUDS BELOW 12,000 FEET WITH NO
SIGNIFICANT WEATHER AND/OR OBSTRUCTIONS TO VISIBILITY.


NDZ001>003-009>011-017-180900-
NORTHWEST NORTH DAKOTA
  
CITY           SKY/WX    TMP DP  RH WIND       PRES   REMARKS
WILLISTON      CLEAR     50  46  86 N5        30.06F                  
MINOT          MOCLDY    48  44  86 NW3       30.06S                  
MINOT AFB      MOCLDY    43  42  94 W3        30.05F                  
$$
 
NDZ018>021-031>035-040>046-180900-
SOUTHWEST NORTH DAKOTA
  
CITY           SKY/WX    TMP DP  RH WIND       PRES   REMARKS
BISMARCK       CLEAR     50  47  89 E3        30.07F                  
DICKINSON      LGT RAIN  53  48  83 S5        30.06S                  
GARRISON         N/A     46  45  96 NE5       30.06F                  
HETTINGER ARPT PTCLDY    53  47  79 E8        30.06F                  
$$
 
NDZ004>008-012>016-024-026-027-054-180900-
NORTHEAST NORTH DAKOTA
  
CITY           SKY/WX    TMP DP  RH WIND       PRES   REMARKS
GRAND FORKS    CLEAR     50  49  96 NW5       30.00F FOG              
GRND FRKS AFB  CLEAR     52  52 100 NW6       30.01S                  
DEVILS LAKE    CLOUDY    55  53  93 NW7       30.05F                  
$$
 
NDZ022-023-025-028>030-036>039-047>053-180900-
SOUTHEAST NORTH DAKOTA
  
CITY           SKY/WX    TMP DP  RH WIND       PRES   REMARKS
FARGO          PTCLDY    52  51  97 W3        29.99F                  
JAMESTOWN      PTCLDY    52  50  93 W6        30.03F                  
$$